Regional Weather Roundup
Issued by NWS

Home | Current Version | Previous Version | Graphics & Text | Print | Product List | Glossary Off
Versions: 1 2 3 4 5 6 7 8 9 10 11 12 13 14 15 16 17 18 19 20 21 22 23 24 25 26 27 28 29 30 31 32 33 34 35 36 37 38 39 40 41 42 43 44 45 46 47 48 49 50

710
ASUS43 KMKX 090711
RWRWI

WISCONSIN REGIONAL WEATHER ROUNDUP
NATIONAL WEATHER SERVICE MILWAUKEE/SULLIVAN WI
100 AM CST TUE FEB 09 2016

NOTE: "FAIR" INDICATES FEW OR NO CLOUDS BELOW 12,000 FEET WITH NO
SIGNIFICANT WEATHER AND/OR OBSTRUCTIONS TO VISIBILITY.

WIZ001-002-006>008-014>016-023>028-090800-
NORTHWEST WISCONSIN

CITY           SKY/WX    TMP DP  RH WIND       PRES   REMARKS
SUPERIOR ARPT  CLOUDY     7  -2  67 N14       30.02S WCI -10
ASHLAND        CLOUDY    11   6  81 NW10      29.91S HAZE    WCI  -3
HAYWARD        CLOUDY     7   0  73 VRB5      29.91R HAZE    WCI  -2
SIREN          CLOUDY     7  -1  69 N12       29.98S WCI  -9
CUMBERLAND     CLOUDY     5  -2  72 NW14G20   29.93R WCI -12
RICE LAKE      CLOUDY     6   0  73 NW8G16    29.94S WCI  -6
CHETEK         CLOUDY     6   0  75 N8        29.92S WCI  -7
LADYSMITH      LGT SNOW   8   3  80 NW13      29.88S WCI  -8
EAU CLAIRE     PTCLDY     8  -1  66 NW10G21   29.92R WCI  -6
MENOMONIE      CLOUDY    10   1  66 NW18G24   29.95S WCI  -8
NEW RICHMOND   CLOUDY     8   0  68 N15       29.97S WCI  -9
OSCEOLA        CLOUDY    10   2  68 NW13G18   30.01S WCI  -5
$$

WIZ003>005-009-010-017-018-090800-
NORTH CENTRAL WISCONSIN

CITY           SKY/WX    TMP DP  RH WIND       PRES   REMARKS
MANITOWISH WTR LGT SNOW  10   7  85 N9        29.75S WCI  -2
ARBOR VITAE    LGT SNOW  11   8  85 NW7       29.74S WCI   1
WOODRUFF       LGT SNOW  11   8  85 NW7       29.74S WCI   1
RHINELANDER    LGT SNOW   8   4  83 NW7       29.73S FOG     WCI  -3
EAGLE RIVER    LGT SNOW  10   4  78 N8        29.72S WCI  -2
LAND O LAKES   LGT SNOW  11   7  83 N14       29.73S WCI  -5
PHILLIPS       LGT SNOW   7   2  81 NW8       29.79F WCI  -6
TOMAHAWK       FLURRIES   7   2  82 NW7       29.77S WCI  -5
MEDFORD        PTCLDY     7   2  82 NW13      29.78F WCI  -9
MERRILL        FLURRIES   9   4  77 NW8       29.78S WCI  -3
$$

WIZ029-030-035-036-043>047-090800-
CENTRAL WISCONSIN

CITY           SKY/WX    TMP DP  RH WIND       PRES   REMARKS
WAUSAU         CLOUDY    11   4  73 NW10      29.76S WCI  -3
MOSINEE        PTCLDY    10   7  85 NW10      29.79R WCI  -3
MARSHFIELD     CLOUDY     9   2  73 NW17      29.79S HAZE    WCI  -9
STEVENS POINT  FLURRIES   9   4  78 W6        29.79S WCI  -1
WAUPACA        PTCLDY    16  10  74 NW10G16   29.78S WCI   4
WAUTOMA        CLOUDY    13   8  80 NW14      29.80S HAZE    WCI  -2
WISC RAPIDS    PTCLDY    10   2  69 NW13      29.82S WCI  -5
CAMP DOUGLAS   PTCLDY    10   9  92 NW13      29.83S WCI  -5
$$

WIZ011>013-019>022-031-037>040-048>050-090800-
NORTHEAST WISCONSIN

CITY           SKY/WX    TMP DP  RH WIND       PRES   REMARKS
ANTIGO         FLURRIES   9   5  84 NW9       29.72S WCI  -5
SHAWANO        FLURRIES  17  11  75 NW5       29.77S WCI  10
OCONTO         CLOUDY    16   8  68 N8        29.75F WCI   6
STURGEON BAY   MOCLDY    16   7  67 N14       29.74F WCI   1
GREEN BAY      LGT SNOW  17  10  74 NW12      29.75S WCI   4
MANITOWOC      FLURRIES  17  11  77 N14       29.74S WCI   3
APPLETON       PTCLDY    16   9  73 W10       29.73S WCI   3
CLINTONVILLE   FLURRIES  16  10  79 NW9       29.77S WCI   4
OSHKOSH        LGT SNOW  16  10  77 NW15      29.75S WCI   1
$$

WIZ032>034-041-042-053>061-090800-
SOUTHWEST WISCONSIN

CITY           SKY/WX    TMP DP  RH WIND       PRES   REMARKS
LA CROSSE      CLOUDY    12   3  67 N14       29.91S WCI  -3
SPARTA         FLURRIES  11   5  77 NW9       29.89S WCI  -2
VIROQUA        CLOUDY    10   5  78 N15       29.83R WCI  -6
BOSCOBEL       LGT SNOW  15  10  80 NW5       29.87S WCI   8
PRAIRIE DU CHI FLURRIES  14   8  75 NW9       29.89S WCI   2
PLATTEVILLE    CLOUDY    14  11  87 NW14      29.81S WCI  -1
$$

WIZ056-057-062-063-064-067-068-090800-
SOUTH CENTRAL WISCONSIN

CITY           SKY/WX    TMP DP  RH WIND       PRES   REMARKS
REEDSBURG      FLURRIES  12   6  77 N10G16    29.82R WCI  -2
BARABOO/DELLS  FLURRIES  12   6  77 NW14G20   29.80R WCI  -3
LONE ROCK      FLURRIES  14   6  70 NW12      29.84S WCI   0
MINERAL POINT  LGT SNOW  16  10  79 NW14      29.79S WCI   1
MADISON        LGT SNOW  14   9  80 N10       29.78S WCI   1
MIDDLETON      CLOUDY    16  11  83 NW12      29.79S WCI   2
WATERTOWN      LGT SNOW  15  14  94 NW13      29.75S WCI   1
MONROE         LGT SNOW  16  12  86 NW12G17   29.77S WCI   3
JANESVILLE     FLURRIES  19  12  73 NW12      29.77S WCI   7
$$

WIZ051-052-058>065-066-070>072-090800-
SOUTHEAST WISCONSIN

CITY           SKY/WX    TMP DP  RH WIND       PRES   REMARKS
MILWAUKEE      FLURRIES  19  13  77 NW14      29.72F WCI   6
WAUKESHA       FLURRIES  16  12  86 NW12      29.73F WCI   3
MILWAUKEE/TIMM FLURRIES  19  12  73 NW13      29.74F WCI   7
RACINE         LGT SNOW  19  13  77 NW12G18   29.73S WCI   7
BURLINGTON     LGT SNOW  16  11  83 NW12      29.74S WCI   2
KENOSHA        LGT SNOW  19  13  77 NW10G24   29.72S WCI   7
FOND DU LAC    FLURRIES  18  12  77 N16       29.75S WCI   3
SHEBOYGAN      LGT SNOW  19  14  81 N7        29.72S WCI  10
WEST BEND      FLURRIES  19  14  79 NW10G17   29.72S WCI   8
JUNEAU         LGT SNOW  15  11  85 NW10      29.75F WCI   2
$$

LSZ147-162-090800-
LAKE SUPERIOR

STATION/POSITION TIME  TEMP    WIND        PRES    WAVE
                       AIR SEA DIR/SP/G            HT/PER
                 (UTC) (F)     (DEG/KT/KT) (MB)    (FT/S)
DEVILS ISLAND    0600   14     350/ 23/ 25 1014.7R
PORT WING        0627   13     330/ 21/ 26 1014.9R
SAXON HARBOR     0640   16                 1011.9S
$$

LMZ867-665-643>646-090800-
LAKE MICHIGAN

STATION/POSITION TIME  TEMP    WIND        PRES    WAVE
                       AIR SEA DIR/SP/G            HT/PER
                 (UTC) (F)     (DEG/KT/KT) (MB)    (FT/S)
CHAMBERS ISLAND  0600   17     320/ 17/ 21 1007.5S
NORTHPORT PIER   0604   18     330/ 18     1006.8F
ALGOMA LAKESHORE 0641          340/ 11/ 15   N/A
KEWAUNEE LAKESHO 0600   18     350/ 11/ 14 1006.5S
SHEBOYGAN LAKESH 0700   19     330/ 13/ 15 1007.8F
PORT WASHINGTON  0600   21     320/  6/ 10 1008.1R
MILWAUKEE LAKESH 0610   20     320/ 12/ 14   N/A
KENOSHA   LAKESH 0600   19     300/ 16/ 21 1006.4F
$$

TC  - TEMPERATURE IN CELSIUS
VSB - VISIBILITY IN STATUTE MILES
WCI - WIND CHILL INDEX
HX  - HEAT INDEX





USA.gov is the U.S. government's official web portal to all federal, state and local government web resources and services.